Weather History for KPNA - October, 2012

Change the Weather History Date:

Monday, October 22, 2012

  Actual Average (KBPI) Record (KBPI)
Temperature  
Mean Temperature 43 °F 36 °F  
Max Temperature 51 °F 53 °F 73 °F (2003)
Min Temperature 35 °F 19 °F 4 °F (1990)
Degree Days  
Heating Degree Days 22 29  
Month to date heating degree days 549  
Since 1 July heating degree days 1300  
Cooling Degree Days 0 0  
Month to date cooling degree days 0  
Year to date cooling degree days 35  
Moisture  
Dew Point 38 °F    
Average Humidity 87    
Maximum Humidity 100    
Minimum Humidity 54    
Precipitation  
Precipitation 0.00 in 0.01 in 0.23 in (2002)
Month to date precipitation 0.43  
Year to date precipitation 5.87  
Sea Level Pressure  
Sea Level Pressure 29.79 in    
Wind  
Wind Speed 8 mph (SSE)    
Max Wind Speed 25 mph    
Max Gust Speed 37 mph    
Visibility 9 miles    
Events Rain , Thunderstorm    
T = Trace of Precipitation, MM = Missing Value Source: NWS Daily Summary

Daily Weather History Graph

Daily Weather History Graph

Search for Another Location

Airport or City:

Trip Planner

Search our weather history database for the weather conditions in past years. The results will help you decide how hot, cold, wet, or windy it might be!

Date:

Astronomy

Oct. 22, 2012 Rise Set
Actual Time 7:41 AM MDT 6:24 PM MDT
Civil Twilight 7:12 AM MDT 6:53 PM MDT
Nautical Twilight 6:39 AM MDT 7:26 PM MDT
Astronomical Twilight 6:06 AM MDT 7:59 PM MDT
Moon 2:43 PM MDT (10/22) 12:22 AM MDT (10/22)
Length of Visible Light 11h 41m
Length of Day
10h 43m
First Quarter, 57% of the Moon is Illuminated
Oct 22
First Quarter
Oct 29
Full
Nov 6
Last Quarter
Nov 13
New
Nov 20
First Quarter

Hourly Weather History & Observations

Time (MDT) Temp. Windchill Dew Point Humidity Pressure Visibility Wind Dir Wind Speed Gust Speed Precip Events Conditions
12:15 AM 41.0 °F 36.4 °F 33.8 °F 76% 29.88 in 10.0 mi ESE 6.9 mph - N/A   Mostly Cloudy
12:55 AM 39.2 °F 34.2 °F 37.4 °F 93% 29.88 in 10.0 mi ESE 6.9 mph - N/A   Mostly Cloudy
1:15 AM 41.0 °F 34.7 °F 37.4 °F 87% 29.88 in 10.0 mi ESE 10.4 mph - N/A   Overcast
1:55 AM 41.0 °F 37.1 °F 35.6 °F 81% 29.88 in 10.0 mi ESE 5.8 mph - N/A   Overcast
2:15 AM 41.0 °F 37.1 °F 35.6 °F 81% 29.88 in 10.0 mi East 5.8 mph - N/A   Overcast
2:35 AM 41.0 °F 35.2 °F 35.6 °F 81% 29.87 in 10.0 mi East 9.2 mph - N/A   Overcast
3:15 AM 41.0 °F 37.1 °F 37.4 °F 87% 29.88 in 7.0 mi ESE 5.8 mph - N/A Rain Rain
3:55 AM 39.2 °F 35.0 °F 39.2 °F 100% 29.88 in 10.0 mi ESE 5.8 mph - N/A   Overcast
4:15 AM 39.2 °F 35.9 °F 39.2 °F 100% 29.88 in 10.0 mi East 4.6 mph - N/A Rain Light Rain
4:35 AM 37.4 °F 32.8 °F 37.4 °F 100% 29.89 in 10.0 mi ESE 5.8 mph - N/A   Drizzle
5:15 AM 37.4 °F - 37.4 °F 100% 29.88 in 10.0 mi Calm Calm - N/A   Drizzle
5:35 AM 37.4 °F 32.8 °F 37.4 °F 100% 29.89 in 7.0 mi ESE 5.8 mph - N/A Rain Light Rain
5:55 AM 37.4 °F 32.1 °F 37.4 °F 100% 29.88 in 7.0 mi East 6.9 mph - N/A Rain Light Rain
6:15 AM 37.4 °F 32.8 °F 37.4 °F 100% 29.88 in 10.0 mi ESE 5.8 mph - N/A   Overcast
6:35 AM 35.6 °F 30.7 °F 35.6 °F 100% 29.87 in 10.0 mi East 5.8 mph - N/A   Overcast
7:15 AM 37.4 °F 34.9 °F 37.4 °F 100% 29.87 in 10.0 mi NW 3.5 mph - N/A   Overcast
7:35 AM 37.4 °F - 37.4 °F 100% 29.86 in 10.0 mi Calm Calm - N/A Rain Rain
8:15 AM 37.4 °F - 37.4 °F 100% 29.84 in 5.0 mi Calm Calm - N/A Rain Light Rain
8:35 AM 37.4 °F - 37.4 °F 100% 29.84 in 10.0 mi Calm Calm - N/A   Overcast
8:55 AM 37.4 °F - 37.4 °F 100% 29.84 in 10.0 mi Calm Calm - N/A   Overcast
9:15 AM 37.4 °F - 37.4 °F 100% 29.83 in 10.0 mi Calm Calm - N/A   Overcast
9:35 AM 39.2 °F 37.0 °F 39.2 °F 100% 29.82 in 10.0 mi East 3.5 mph - N/A   Overcast
9:55 AM 41.0 °F 39.0 °F 41.0 °F 100% 29.82 in 10.0 mi ESE 3.5 mph - N/A   Overcast
10:15 AM 41.0 °F 36.4 °F 41.0 °F 100% 29.83 in 10.0 mi SSW 6.9 mph - N/A   Overcast
10:35 AM 41.0 °F 39.0 °F 39.2 °F 93% 29.82 in 10.0 mi West 3.5 mph - N/A   Overcast
10:55 AM 41.0 °F - 39.2 °F 93% 29.82 in 10.0 mi Calm Calm - N/A   Overcast
11:15 AM 41.0 °F - 39.2 °F 93% 29.82 in 10.0 mi Calm Calm - N/A   Mostly Cloudy
11:35 AM 42.8 °F - 41.0 °F 93% 29.80 in 10.0 mi Calm Calm - N/A   Mostly Cloudy
11:55 AM 42.8 °F 41.1 °F 41.0 °F 93% 29.80 in 10.0 mi ESE 3.5 mph - N/A   Mostly Cloudy
12:15 PM 44.6 °F 41.4 °F 42.8 °F 93% 29.79 in 10.0 mi East 5.8 mph - N/A   Overcast
12:35 PM 44.6 °F 41.4 °F 42.8 °F 93% 29.79 in 10.0 mi SSE 5.8 mph - N/A   Overcast
12:55 PM 46.4 °F 42.4 °F 41.0 °F 81% 29.77 in 10.0 mi South 8.1 mph - N/A   Overcast
1:15 PM 46.4 °F 42.4 °F 41.0 °F 81% 29.77 in 10.0 mi SSE 8.1 mph - N/A   Overcast
1:55 PM 48.2 °F - 41.0 °F 76% 29.74 in 10.0 mi SSE 11.5 mph - N/A   Overcast
2:15 PM 46.4 °F 40.4 °F 39.2 °F 76% 29.75 in 10.0 mi South 13.8 mph 27.6 mph N/A Rain Light Rain
2:35 PM 50.0 °F - 41.0 °F 71% 29.73 in 10.0 mi South 13.8 mph 17.3 mph N/A   Mostly Cloudy
2:55 PM 50.0 °F - 39.2 °F 66% 29.72 in 10.0 mi South 11.5 mph 19.6 mph N/A   Overcast
3:15 PM 51.8 °F - 37.4 °F 58% 29.71 in 10.0 mi South 16.1 mph 21.9 mph N/A   Overcast
3:35 PM 51.8 °F - 37.4 °F 58% 29.71 in 10.0 mi South 11.5 mph - N/A   Mostly Cloudy
3:55 PM 51.8 °F - 37.4 °F 58% 29.71 in 10.0 mi SSW 12.7 mph 20.7 mph N/A   Mostly Cloudy
4:15 PM 51.8 °F - 37.4 °F 58% 29.70 in 10.0 mi South 16.1 mph 19.6 mph N/A   Scattered Clouds
4:35 PM 51.8 °F - 37.4 °F 58% 29.70 in 10.0 mi South 12.7 mph 19.6 mph N/A   Scattered Clouds
5:15 PM 50.0 °F - 33.8 °F 54% 29.71 in 10.0 mi SW 23.0 mph 29.9 mph N/A   Scattered Clouds
5:35 PM 48.2 °F - 33.8 °F 58% 29.71 in 10.0 mi SW 10.4 mph 16.1 mph N/A   Clear
5:55 PM 44.6 °F 39.2 °F 37.4 °F 76% 29.71 in 10.0 mi West 10.4 mph - N/A Thunderstorm Scattered Clouds
6:15 PM 42.8 °F 37.0 °F 37.4 °F 81% 29.73 in 10.0 mi West 10.4 mph - N/A   Scattered Clouds
6:35 PM 42.8 °F 34.8 °F 35.6 °F 76% 29.74 in 10.0 mi West 17.3 mph 24.2 mph N/A Rain Rain
6:55 PM 39.2 °F 28.3 °F 37.4 °F 93% 29.75 in 7.0 mi WSW 25.3 mph 36.8 mph N/A Rain Light Rain
7:15 PM 37.4 °F 26.9 °F 37.4 °F 100% 29.75 in 5.0 mi WSW 20.7 mph 35.7 mph N/A Rain Light Rain
7:35 PM 37.4 °F 26.4 °F 37.4 °F 100% 29.74 in 3.0 mi SW 23.0 mph 28.8 mph N/A Rain Rain
7:55 PM 39.2 °F 28.7 °F 37.4 °F 93% 29.74 in 4.0 mi SW 23.0 mph 32.2 mph N/A Rain Rain
8:55 PM 39.2 °F 33.0 °F 37.4 °F 93% 29.75 in 10.0 mi South 9.2 mph - N/A Rain Light Rain
9:15 PM 39.2 °F 34.2 °F 37.4 °F 93% 29.74 in 10.0 mi South 6.9 mph - N/A   Overcast
9:35 PM 39.2 °F 31.6 °F 37.4 °F 93% 29.72 in 10.0 mi SSE 12.7 mph 18.4 mph N/A   Light Drizzle
9:55 PM 41.0 °F 33.5 °F 35.6 °F 81% 29.71 in 10.0 mi SSW 13.8 mph 19.6 mph N/A Rain Light Rain
10:15 PM 41.0 °F 32.2 °F 37.4 °F 87% 29.72 in 10.0 mi South 18.4 mph 24.2 mph N/A Rain Rain
10:35 PM 41.0 °F 32.8 °F 37.4 °F 87% 29.71 in 7.0 mi SW 16.1 mph 21.9 mph N/A Rain Rain
11:15 PM 39.2 °F 31.6 °F 37.4 °F 93% 29.71 in 10.0 mi SSE 12.7 mph - N/A Rain Light Rain
11:35 PM 39.2 °F 33.6 °F 37.4 °F 93% 29.72 in 10.0 mi SW 8.1 mph - N/A Rain Rain
11:55 PM 39.2 °F 33.6 °F 37.4 °F 93% 29.72 in 7.0 mi SW 8.1 mph - N/A Rain Light Rain